FW8865 Weather Reports


Display with metric or nautical units.
time (UTC)temp
F
wind
direction
speed
MPH
gust
MPH
rain 1hr
in
rain 24hr
in
rain mn
in
humidity
%
barometer
mb
20260906230638 94 225 1.0 2.0 0.00 0.00 0.00 22 1012.0
20260906225618 93 315 1.0 2.0 0.00 0.00 0.00 22 1011.8
20260906224617 93 0.0 1.0 0.00 0.00 0.00 22 1011.8
20260906223618 94 225 2.0 3.0 0.00 0.00 0.00 22 1011.9
20260906222617 94 225 3.0 6.0 0.00 0.00 0.00 22 1011.9
20260906221618 94 225 2.0 3.0 0.00 0.00 0.00 22 1012.0
20260906220617 94 248 2.0 4.0 0.00 0.00 0.00 22 1012.6
20260906215618 94 158 1.0 2.0 0.00 0.00 0.00 23 1012.8
20260906214617 94 203 2.0 5.0 0.00 0.00 0.00 22 1012.9
20260906213617 94 225 2.0 7.0 0.00 0.00 0.00 23 1013.1
20260906212617 94 270 2.0 3.0 0.00 0.00 0.00 21 1013.2
20260906211658 94 248 2.0 4.0 0.00 0.00 0.00 21 1013.3
20260906210618 94 248 2.0 3.0 0.00 0.00 0.00 21 1013.6
20260906205617 94 225 1.0 4.0 0.00 0.00 0.00 21 1013.1
20260906204617 93 225 2.0 3.0 0.00 0.00 0.00 21 1013.6
20260906203617 92 180 2.0 4.0 0.00 0.00 0.00 21 1013.5
20260906202617 92 90 2.0 3.0 0.00 0.00 0.00 22 1013.6
20260906201617 91 135 1.0 4.0 0.00 0.00 0.00 22 1014.1
20260906200618 92 68 6.0 8.0 0.00 0.00 0.00 22 1013.8
20260906195617 92 90 2.0 3.0 0.00 0.00 0.00 22 1014.2
20260906194617 92 0 1.0 2.0 0.00 0.00 0.00 22 1014.5
20260906193617 91 45 2.0 2.0 0.00 0.00 0.00 22 1014.3
20260906192617 91 293 1.0 3.0 0.00 0.00 0.00 22 1014.3
20260906191617 89 23 2.0 3.0 0.00 0.00 0.00 23 1014.5
20260906190617 89 45 4.0 6.0 0.00 0.00 0.00 22 1015.0
20260906185617 90 68 4.0 5.0 0.00 0.00 0.00 22 1014.9
20260906184639 89 113 2.0 3.0 0.00 0.00 0.00 23 1015.5
20260906183657 88 113 3.0 5.0 0.00 0.00 0.00 23 1015.6
20260906182718 89 68 1.0 2.0 0.00 0.00 0.00 24 1015.7
20260906181617 88 90 1.0 2.0 0.00 0.00 0.00 25 1015.9
20260906180618 87 90 1.0 2.0 0.00 0.00 0.00 26 1016.4
20260906175617 86 90 2.0 3.0 0.00 0.00 0.00 27 1016.0
20260906174657 86 45 2.0 3.0 0.00 0.00 0.00 28 1016.2
20260906173617 85 45 3.0 5.0 0.00 0.00 0.00 30 1016.8
20260906172617 84 90 2.0 3.0 0.00 0.00 0.00 30 1016.4
20260906171617 84 68 2.0 5.0 0.00 0.00 0.00 31 1016.6
20260906170617 83 68 2.0 3.0 0.00 0.00 0.00 32 1017.0
20260906165617 82 45 3.0 4.0 0.00 0.00 0.00 32 1016.7
20260906164617 82 68 3.0 5.0 0.00 0.00 0.00 32 1016.8
20260906163616 82 68 3.0 4.0 0.00 0.00 0.00 33 1017.2
20260906162617 81 45 3.0 4.0 0.00 0.00 0.00 33 1016.9
20260906161617 81 45 3.0 4.0 0.00 0.00 0.00 33 1016.8
20260906160616 80 45 3.0 4.0 0.00 0.00 0.00 33 1017.5
20260906155617 81 45 3.0 5.0 0.00 0.00 0.00 33 1017.1
20260906154617 81 0 2.0 3.0 0.00 0.00 0.00 33 1017.0
20260906153616 79 338 1.0 2.0 0.00 0.00 0.00 34 1017.1
20260906152616 78 338 1.0 2.0 0.00 0.00 0.00 34 1017.1
20260906151617 77 315 1.0 2.0 0.00 0.00 0.00 35 1017.2
20260906150616 76 315 2.0 4.0 0.00 0.00 0.00 35 1017.3
20260906145639 76 0 2.0 4.0 0.00 0.00 0.00 35 1016.9
20260906144617 76 315 2.0 4.0 0.00 0.00 0.00 35 1016.9
20260906143616 76 0 2.0 4.0 0.00 0.00 0.00 35 1017.1
20260906142616 75 338 1.0 3.0 0.00 0.00 0.00 37 1017.1
20260906141657 74 45 1.0 2.0 0.00 0.00 0.00 37 1016.9
20260906140616 73 45 2.0 3.0 0.00 0.00 0.00 37 1017.1
20260906135617 72 338 2.0 2.0 0.00 0.00 0.00 38 1016.7
20260906134616 71 293 1.0 2.0 0.00 0.00 0.00 38 1016.3
20260906133636 71 315 1.0 2.0 0.00 0.00 0.00 38 1016.4
20260906132616 70 315 2.0 3.0 0.00 0.00 0.00 39 1016.3
20260906131616 70 315 2.0 4.0 0.00 0.00 0.00 39 1016.6
20260906130639 69 315 1.0 3.0 0.00 0.00 0.00 40 1016.5
20260906125616 68 0.0 1.0 0.00 0.00 0.00 40 1016.1
20260906124616 68 23 1.0 2.0 0.00 0.00 0.00 41 1015.9
20260906123616 68 0.0 1.0 0.00 0.00 0.00 40 1016.1
20260906122616 69 0.0 2.0 0.00 0.00 0.00 39 1016.3
20260906121616 70 315 1.0 3.0 0.00 0.00 0.00 39 1016.0
20260906120618 70 0.0 0.0 0.00 0.00 0.00 38 1016.3
20260906115616 70 338 1.0 1.0 0.00 0.00 0.00 37 1015.9
20260906114616 70 0.0 1.0 0.00 0.00 0.00 38 1015.9
20260906113636 71 315 1.0 2.0 0.00 0.00 0.00 38 1015.7
20260906112616 71 0.0 1.0 0.00 0.00 0.00 39 1016.0
20260906111618 71 0.0 1.0 0.00 0.00 0.00 38 1016.1
20260906110618 72 0 1.0 2.0 0.00 0.00 0.00 38 1015.6
20260906105616 72 0.0 0.0 0.00 0.00 0.00 39 1015.6
20260906104618 72 0.0 0.0 0.00 0.00 0.00 39 1015.6
20260906103618 73 0.0 0.0 0.00 0.00 0.00 38 1015.2
20260906102617 73 338 1.0 2.0 0.00 0.00 0.00 38 1015.2
20260906101617 73 0.0 2.0 0.00 0.00 0.00 38 1015.1
20260906100618 73 338 1.0 2.0 0.00 0.00 0.00 38 1015.1
20260906095617 73 0.0 0.0 0.00 0.00 0.00 38 1015.3
20260906094618 73 0.0 0.0 0.00 0.00 0.00 38 1015.1
20260906093617 74 0.0 0.0 0.00 0.00 0.00 37 1015.3
20260906092618 75 0.0 1.0 0.00 0.00 0.00 37 1015.2
20260906091618 75 0.0 1.0 0.00 0.00 0.00 36 1015.2
20260906090618 76 315 1.0 2.0 0.00 0.00 0.00 36 1014.8
20260906085638 76 293 2.0 3.0 0.00 0.00 0.00 36 1014.7
20260906084617 76 293 1.0 2.0 0.00 0.00 0.00 36 1014.7
20260906083617 75 338 2.0 3.0 0.00 0.00 0.00 36 1015.2
20260906082617 75 45 1.0 2.0 0.00 0.00 0.00 36 1015.2
20260906081617 75 45 1.0 2.0 0.00 0.00 0.00 36 1015.3
20260906080617 75 0.0 0.0 0.00 0.00 0.00 36 1015.1
20260906075617 75 0.0 1.0 0.00 0.00 0.00 36 1015.2
20260906074617 75 0.0 0.0 0.00 0.00 0.00 36 1015.3
20260906073617 75 0.0 2.0 0.00 0.00 0.00 36 1015.3
20260906072617 75 0.0 0.0 0.00 0.00 0.00 37 1015.4
20260906071617 74 68 1.0 2.0 0.00 0.00 0.00 37 1015.7
20260906070617 75 0.0 0.0 0.00 0.00 0.00 37 1015.1
20260906065637 76 0.0 0.0 0.00 0.00 0.00 36 1015.4
20260906064637 76 0.0 0.0 0.00 0.00 0.00 37 1015.3
20260906063617 75 0.0 1.0 0.00 0.00 0.00 38 1015.1
20260906062617 76 23 1.0 2.0 0.00 0.00 0.00 37 1015.1
20260906061617 77 0 1.0 2.0 0.00 0.00 0.00 36 1014.9
20260906060659 77 315 2.0 3.0 0.00 0.00 0.00 35 1014.1
20260906055657 78 315 3.0 4.0 0.00 0.00 0.00 34 1015.0
20260906054637 78 315 3.0 4.0 0.00 0.00 0.00 34 1014.9
20260906053637 78 293 3.0 5.0 0.00 0.00 0.00 34 1014.2
20260906052617 79 293 2.0 3.0 0.00 0.00 0.00 34 1014.3
20260906051617 79 315 3.0 5.0 0.00 0.00 0.00 34 1014.2
20260906050617 79 315 3.0 4.0 0.00 0.00 0.00 34 1014.2
20260906045617 79 315 3.0 5.0 0.00 0.00 0.00 34 1014.9
20260906044616 79 315 2.0 4.0 0.00 0.00 0.00 34 1014.9
20260906043617 79 293 2.0 4.0 0.00 0.00 0.00 33 1014.2
20260906042617 79 293 3.0 4.0 0.00 0.00 0.00 33 1014.2
20260906041616 80 315 1.0 3.0 0.00 0.00 0.00 33 1014.3
20260906040617 80 315 2.0 4.0 0.00 0.00 0.00 33 1014.2
20260906035617 81 315 2.0 4.0 0.00 0.00 0.00 32 1015.0
20260906034617 81 315 2.0 3.0 0.00 0.00 0.00 32 1014.9
20260906033616 82 293 2.0 3.0 0.00 0.00 0.00 31 1014.6
20260906032616 82 293 3.0 4.0 0.00 0.00 0.00 32 1014.4
20260906031616 82 315 2.0 3.0 0.00 0.00 0.00 31 1014.3
20260906030616 82 293 2.0 4.0 0.00 0.00 0.00 31 1013.7
20260906025657 82 315 3.0 5.0 0.00 0.00 0.00 31 1013.9
20260906024616 83 293 3.0 5.0 0.00 0.00 0.00 31 1013.8
20260906023618 83 270 2.0 4.0 0.00 0.00 0.00 31 1013.4
20260906022616 83 293 2.0 3.0 0.00 0.00 0.00 31 1013.3
20260906021617 84 293 2.0 3.0 0.00 0.00 0.00 31 1012.9
20260906020616 84 270 2.0 4.0 0.00 0.00 0.00 31 1013.0
20260906015616 85 293 2.0 3.0 0.00 0.00 0.00 31 1013.8
20260906014616 86 315 2.0 3.0 0.00 0.00 0.00 30 1013.7
20260906013616 86 293 2.0 2.0 0.00 0.00 0.00 30 1013.4
20260906012636 87 315 1.0 2.0 0.00 0.00 0.00 30 1012.9
20260906011616 87 293 2.0 4.0 0.00 0.00 0.00 30 1013.1
20260906010636 88 293 1.0 2.0 0.00 0.00 0.00 30 1013.0
20260906005616 88 315 1.0 3.0 0.00 0.00 0.00 29 1013.7
20260906004638 89 315 2.0 3.0 0.00 0.00 0.00 29 1013.9
20260906003616 88 270 3.0 4.0 0.00 0.00 0.00 29 1013.8
20260906002616 89 338 2.0 3.0 0.00 0.00 0.00 29 1013.6
20260906001617 89 315 1.0 4.0 0.00 0.00 0.00 29 1013.5
20260906000636 90 315 4.0 7.0 0.00 0.00 0.00 29 1013.6
20260905235616 90 23 1.0 3.0 0.00 0.00 0.00 28 1013.4
20260905234616 90 248 2.0 4.0 0.00 0.00 0.00 29 1013.5
20260905233616 90 293 2.0 5.0 0.00 0.00 0.00 29 1013.7
20260905232618 90 338 2.0 3.0 0.00 0.00 0.00 29 1013.5
20260905231618 92 23 3.0 6.0 0.00 0.00 0.00 28 1013.4